Lid_Strength_Index
4 3 3 3 3 3 3 2 2 2 3 3 2 2 1 1 2 3 3 2 2 2
4 4 3 4 3 2 2 2 3 3 4 4 3 3 3 1 1 1 1 1 1 2
5 4 4 4 4 2 3 3 3 3 4 4 4 4 4 4 3 2 1 1 3 3
5 4 4 4 4 3 3 3 3 4 4 4 5 5 5 5 4 4 3 3 2 2
6 5 5 5 4 3 3 3 3 3 4 4 4 4 5 5 4 4 4 3 2 2
6 6 6 5 5 4 4 4 4 4 3 3 3 4 4 3 3 3 3 3 2 2
7 7 7 6 6 6 4 3 3 2 2 2 2 2 2 2 3 3 2 2 2 1
7 7 7 7 7 6 5 4 3 3 3 3 2 2 3 2 2 3 3 2 2 1
6 6 7 6 5 5 5 5 5 4 3 3 2 4 4 3 3 2 3 3 2 2
7 7 6 5 5 6 6 6 6 7 7 6 6 7 6 4 4 3 3 2 2 2
7 7 7 7 7 6 7 8 8 7 7 7 6 7 8 7 4 5 3 2 2 2
8 8 8 9 10 10 9 9 8 7 6 6 6 8 8 8 6 5 3 2 1 2
9 10 11 11 11 10 10 9 7 6 6 6 6 7 8 7 7 4 2 2 1 4
11 12 11 11 11 11 10 9 8 8 7 6 5 5 8 8 7 3 3 2 3 2